Burien, Washington, United States
Lat: 47.47N, Lon: 122.35W
Wx Zone: WAZ508
Local Info
Past Weather Observations for Today

NOTE: This archive is for the closest National Weather Service station to Burien. Information may differ from the station used for current weather conditions.

Click here for Long-term Archive

Time Weather Temperature Dewpoint Humidity Pressure Winds Precip Visibility
11:53
Mostly Cloudy
57°F / 14°C 50°F / 10°C 77% 30.15 in
(1021 mb)
W 3.5 mph
(W 6 kph)
- 10SM
10:53
Mostly Cloudy
57°F / 14°C 48°F / 9°C 72% 30.18 in
(1022 mb)
Calm - 10SM
09:53
Mostly Cloudy
54°F / 12°C 46°F / 8°C 77% 30.18 in
(1022 mb)
Calm - 10SM
09:40
Mostly Cloudy
54°F / 12°C 46°F / 8°C 77% 30.18 in
(1022 mb)
Calm - 10SM
08:53
Mostly Cloudy
52°F / 11°C 48°F / 9°C 88% 30.18 in
(1022 mb)
Variable 3.5 mph
(Variable 6 kph)
- 10SM
08:18
Mostly Cloudy
Fog And Mist
52°F / 11°C 50°F / 10°C 94% 30.18 in
(1022 mb)
Calm - 4SM
07:53
Overcast
Fog And Mist
52°F / 11°C 50°F / 10°C 94% 30.18 in
(1022 mb)
Calm - 2 1/2SM
07:50
Overcast
Fog And Mist
52°F / 11°C 50°F / 10°C 94% 30.18 in
(1022 mb)
Calm - 1 1/2SM
06:53
Overcast
Fog And Mist
52°F / 11°C 52°F / 11°C 100% 30.21 in
(1023 mb)
Calm - 3/4SM
06:34
Overcast
Fog And Mist
52°F / 11°C 50°F / 10°C 94% 30.21 in
(1023 mb)
Calm - 4SM
05:53
Mostly Cloudy
Fog And Mist
52°F / 11°C 48°F / 9°C 88% 30.21 in
(1023 mb)
Calm - 3/4SM
05:48
Mostly Cloudy
Fog And Mist
52°F / 11°C 50°F / 10°C 94% 30.21 in
(1023 mb)
Calm - 3/4SM
05:17
Overcast
Fog And Mist
52°F / 11°C 50°F / 10°C 94% 30.21 in
(1023 mb)
SSE 3.5 mph
(SSE 6 kph)
- 3/4SM
04:53
Overcast
Fog And Mist
52°F / 11°C 50°F / 10°C 94% 30.21 in
(1023 mb)
S 4.6 mph
(S 7 kph)
- 3/4SM
04:30
Overcast
Fog And Mist
52°F / 11°C 50°F / 10°C 94% 30.21 in
(1023 mb)
S 5.8 mph
(S 9 kph)
- 3SM
03:53
Overcast
Fog And Mist
54°F / 12°C 52°F / 11°C 94% 30.21 in
(1023 mb)
S 6.9 mph
(S 11 kph)
- 1/2SM
02:53
Overcast
Fog And Mist
54°F / 12°C 52°F / 11°C 94% 30.21 in
(1023 mb)
SSE 4.6 mph
(SSE 7 kph)
- 1/2SM
02:00
Obscured
Fog And Mist
54°F / 12°C 52°F / 11°C 94% 30.24 in
(1024 mb)
SW 4.6 mph
(SW 7 kph)
- 1/2SM
01:53
Obscured
Fog
54°F / 12°C 52°F / 11°C 94% 30.21 in
(1023 mb)
SSE 4.6 mph
(SSE 7 kph)
- 1/4SM
01:41
Obscured
Fog
54°F / 12°C 54°F / 12°C 100% 30.21 in
(1023 mb)
S 5.8 mph
(S 9 kph)
- 1/4SM
01:17
Mostly Cloudy
Fog And Mist
54°F / 12°C 52°F / 11°C 94% 30.21 in
(1023 mb)
SW 8.1 mph
(SW 13 kph)
- 1/2SM
00:53
Mostly Cloudy
54°F / 12°C 52°F / 11°C 94% 30.21 in
(1023 mb)
SSE 8.1 mph
(SSE 13 kph)
- 7SM
Time Weather Temperature Dewpoint Humidity Pressure Winds Precip Visibility


Weather for websites

WeatherForYou.com, LLC is not responsible for any damages or problems caused by this service. Current weather conditions are obtained from the closest station including government and personal stations which may have varying degrees of accuracy. Weather forecasts are derived from the NOAA NDFD. Like all things, this site belongs to Jesus Christ... He just trusts me to maintain it. If you have any questions or comments email webmaster@weatherforyou.com

Copyright © 2015, WeatherForYou.com LLC. All rights reserved.